Time,TemperatureF,DewpointF,PressureIn,WindDirection,WindDirectionDegrees,WindSpeedMPH,WindSpeedGustMPH,Humidity,HourlyPrecipIn,Conditions,Clouds,dailyrainin,SoftwareType,DateUTC
2013-03-06 00:00:00,45.7,33.0,29.79,WNW,299,1.0,12.0,61,0.00,,---,0.00,VWS V14.00,2013-03-06 05:00:00,
2013-03-06 00:05:00,45.3,33.1,29.79,NW,321,4.0,13.0,62,0.00,,---,0.00,VWS V14.00,2013-03-06 05:05:00,
2013-03-06 00:10:00,45.0,32.4,29.80,North,355,10.0,16.0,61,0.00,,---,0.00,VWS V14.00,2013-03-06 05:10:00,
2013-03-06 00:15:00,44.7,32.1,29.80,NNW,336,2.0,16.0,61,0.00,,---,0.00,VWS V14.00,2013-03-06 05:15:00,
2013-03-06 00:20:00,44.4,31.8,29.80,NNW,336,6.0,16.0,61,0.00,,---,0.00,VWS V14.00,2013-03-06 05:20:00,
2013-03-06 00:25:00,44.1,31.9,29.80,NNW,327,4.0,17.0,62,0.00,,---,0.00,VWS V14.00,2013-03-06 05:25:00,
2013-03-06 00:30:00,44.0,31.8,29.80,West,261,11.0,24.0,62,0.00,,---,0.00,VWS V14.00,2013-03-06 05:30:00,
2013-03-06 00:35:00,43.8,31.6,29.80,NW,306,7.0,24.0,62,0.00,,---,0.00,VWS V14.00,2013-03-06 05:35:00,
2013-03-06 00:40:00,43.8,31.6,29.80,NW,326,1.0,24.0,62,0.00,,---,0.00,VWS V14.00,2013-03-06 05:40:00,
2013-03-06 00:45:00,43.6,31.5,29.80,NNW,338,6.0,24.0,62,0.00,,---,0.00,VWS V14.00,2013-03-06 05:45:00,
2013-03-06 00:50:00,43.6,31.5,29.80,SW,224,6.0,24.0,62,0.00,,---,0.00,VWS V14.00,2013-03-06 05:50:00,
2013-03-06 00:55:00,43.5,31.4,29.80,NW,325,9.0,24.0,62,0.00,,---,0.00,VWS V14.00,2013-03-06 05:55:00,
2013-03-06 01:00:00,43.4,31.7,29.81,WNW,292,4.0,15.0,63,0.00,,---,0.00,VWS V14.00,2013-03-06 06:00:00,
2013-03-06 01:05:00,43.3,31.6,29.81,West,261,4.0,15.0,63,0.00,,---,0.00,VWS V14.00,2013-03-06 06:05:00,
2013-03-06 01:10:00,43.2,31.5,29.81,West,281,4.0,15.0,63,0.00,,---,0.00,VWS V14.00,2013-03-06 06:10:00,
2013-03-06 01:15:00,43.1,31.0,29.81,WNW,299,6.0,20.0,62,0.00,,---,0.00,VWS V14.00,2013-03-06 06:15:00,
2013-03-06 01:20:00,43.2,31.5,29.81,North,360,4.0,20.0,63,0.00,,---,0.00,VWS V14.00,2013-03-06 06:20:00,
2013-03-06 01:25:00,43.2,31.5,29.81,WNW,302,4.0,20.0,63,0.00,,---,0.00,VWS V14.00,2013-03-06 06:25:00,
2013-03-06 01:30:00,43.1,31.4,29.81,North,355,5.0,11.0,63,0.00,,---,0.00,VWS V14.00,2013-03-06 06:30:00,
2013-03-06 01:35:00,42.9,30.0,29.82,WSW,246,12.0,18.0,60,0.00,,---,0.00,VWS V14.00,2013-03-06 06:35:00,
2013-03-06 01:40:00,42.5,28.8,29.82,WNW,298,6.0,18.0,58,0.00,,---,0.00,VWS V14.00,2013-03-06 06:40:00,
2013-03-06 01:45:00,42.3,28.2,29.82,NNW,331,4.0,18.0,57,0.00,,---,0.00,VWS V14.00,2013-03-06 06:45:00,
2013-03-06 01:50:00,42.0,28.3,29.82,NNW,338,4.0,18.0,58,0.00,,---,0.00,VWS V14.00,2013-03-06 06:50:00,
2013-03-06 01:55:00,41.8,28.1,29.83,West,279,9.0,19.0,58,0.00,,---,0.00,VWS V14.00,2013-03-06 06:55:00,
2013-03-06 02:00:00,41.7,28.4,29.82,NW,323,11.0,11.0,59,0.00,,---,0.00,VWS V14.00,2013-03-06 07:00:00,
2013-03-06 02:05:00,41.6,27.9,29.83,NW,318,7.0,23.0,58,0.00,,---,0.00,VWS V14.00,2013-03-06 07:05:00,
2013-03-06 02:10:00,41.6,27.9,29.83,WNW,288,2.0,23.0,58,0.00,,---,0.00,VWS V14.00,2013-03-06 07:10:00,
2013-03-06 02:15:00,41.5,27.4,29.83,NNW,335,8.0,23.0,57,0.00,,---,0.00,VWS V14.00,2013-03-06 07:15:00,
2013-03-06 02:20:00,41.4,26.9,29.83,NNW,338,6.0,23.0,56,0.00,,---,0.00,VWS V14.00,2013-03-06 07:20:00,
2013-03-06 02:25:00,41.3,26.8,29.82,NNW,336,1.0,23.0,56,0.00,,---,0.00,VWS V14.00,2013-03-06 07:25:00,
2013-03-06 02:30:00,41.1,26.6,29.82,SW,229,5.0,16.0,56,0.00,,---,0.00,VWS V14.00,2013-03-06 07:30:00,
2013-03-06 02:35:00,41.1,26.6,29.82,NW,324,6.0,16.0,56,0.00,,---,0.00,VWS V14.00,2013-03-06 07:35:00,
2013-03-06 02:40:00,41.0,26.5,29.82,NNW,346,4.0,17.0,56,0.00,,---,0.00,VWS V14.00,2013-03-06 07:40:00,
2013-03-06 02:45:00,41.0,27.0,29.82,NW,310,2.0,17.0,57,0.00,,---,0.00,VWS V14.00,2013-03-06 07:45:00,
2013-03-06 02:50:00,41.0,27.0,29.82,NNW,335,5.0,18.0,57,0.00,,---,0.00,VWS V14.00,2013-03-06 07:50:00,
2013-03-06 02:55:00,40.8,26.8,29.82,NNW,329,7.0,18.0,57,0.00,,---,0.00,VWS V14.00,2013-03-06 07:55:00,
2013-03-06 03:00:00,40.8,27.2,29.82,NW,325,5.0,11.0,58,0.00,,---,0.00,VWS V14.00,2013-03-06 08:00:00,
2013-03-06 03:05:00,40.7,27.1,29.82,NW,313,1.0,11.0,58,0.00,,---,0.00,VWS V14.00,2013-03-06 08:05:00,
2013-03-06 03:10:00,40.5,26.9,29.82,WNW,282,8.0,13.0,58,0.00,,---,0.00,VWS V14.00,2013-03-06 08:10:00,
2013-03-06 03:17:00,40.4,26.8,29.81,NNW,346,2.0,2.0,58,0.00,,---,0.00,VWS V14.00,2013-03-06 08:17:00,
2013-03-06 03:22:00,40.3,27.1,29.82,NNW,336,8.0,12.0,59,0.00,,---,0.00,VWS V14.00,2013-03-06 08:22:00,
2013-03-06 03:27:00,40.2,27.0,29.81,NW,307,2.0,17.0,59,0.00,,---,0.00,VWS V14.00,2013-03-06 08:27:00,
2013-03-06 03:32:00,40.1,27.4,29.81,NW,316,0.0,11.0,60,0.00,,---,0.00,VWS V14.00,2013-03-06 08:32:00,
2013-03-06 03:37:00,40.0,27.2,29.81,NW,305,2.0,11.0,60,0.00,,---,0.00,VWS V14.00,2013-03-06 08:37:00,
2013-03-06 03:42:00,39.8,27.1,29.81,NNW,344,2.0,11.0,60,0.00,,---,0.00,VWS V14.00,2013-03-06 08:42:00,
2013-03-06 03:47:00,39.8,27.1,29.81,WNW,284,5.0,14.0,60,0.00,,---,0.00,VWS V14.00,2013-03-06 08:47:00,
2013-03-06 03:52:00,39.8,26.7,29.81,NNW,344,4.0,16.0,59,0.00,,---,0.00,VWS V14.00,2013-03-06 08:52:00,
2013-03-06 03:57:00,39.8,26.7,29.81,West,267,3.0,7.0,59,0.00,,---,0.00,VWS V14.00,2013-03-06 08:57:00,
2013-03-06 04:02:00,39.8,26.7,29.81,NW,325,8.0,20.0,59,0.00,,---,0.00,VWS V14.00,2013-03-06 09:02:00,
2013-03-06 04:07:00,39.8,26.7,29.81,West,275,4.0,20.0,59,0.00,,---,0.00,VWS V14.00,2013-03-06 09:07:00,
2013-03-06 04:12:00,39.8,26.2,29.81,WSW,245,3.0,20.0,58,0.00,,---,0.00,VWS V14.00,2013-03-06 09:12:00,
2013-03-06 04:17:00,39.8,25.8,29.81,NW,318,10.0,20.0,57,0.00,,---,0.00,VWS V14.00,2013-03-06 09:17:00,
2013-03-06 04:22:00,39.8,25.8,29.82,WNW,298,8.0,20.0,57,0.00,,---,0.00,VWS V14.00,2013-03-06 09:22:00,
2013-03-06 04:27:00,39.8,25.8,29.82,NNW,344,13.0,20.0,57,0.00,,---,0.00,VWS V14.00,2013-03-06 09:27:00,
2013-03-06 04:32:00,39.7,25.7,29.82,North,355,4.0,11.0,57,0.00,,---,0.00,VWS V14.00,2013-03-06 09:32:00,
2013-03-06 04:37:00,39.6,25.6,29.82,WNW,293,4.0,14.0,57,0.00,,---,0.00,VWS V14.00,2013-03-06 09:37:00,
2013-03-06 04:42:00,39.5,25.5,29.82,North,350,5.0,17.0,57,0.00,,---,0.00,VWS V14.00,2013-03-06 09:42:00,
2013-03-06 04:47:00,39.5,25.5,29.81,WNW,283,2.0,17.0,57,0.00,,---,0.00,VWS V14.00,2013-03-06 09:47:00,
2013-03-06 04:52:00,39.3,25.4,29.82,WNW,290,8.0,17.0,57,0.00,,---,0.00,VWS V14.00,2013-03-06 09:52:00,
2013-03-06 04:57:00,39.3,25.4,29.81,NNE,23,7.0,18.0,57,0.00,,---,0.00,VWS V14.00,2013-03-06 09:57:00,
2013-03-06 05:02:00,39.3,25.8,29.81,NW,319,1.0,14.0,58,0.00,,---,0.00,VWS V14.00,2013-03-06 10:02:00,
2013-03-06 05:07:00,39.4,25.5,29.81,WNW,296,9.0,14.0,57,0.00,,---,0.00,VWS V14.00,2013-03-06 10:07:00,
2013-03-06 05:12:00,39.6,25.6,29.82,NNW,343,4.0,14.0,57,0.00,,---,0.00,VWS V14.00,2013-03-06 10:12:00,
2013-03-06 05:17:00,39.7,25.7,29.82,NNW,343,7.0,15.0,57,0.00,,---,0.00,VWS V14.00,2013-03-06 10:17:00,
2013-03-06 05:22:00,39.8,26.2,29.82,SSE,157,6.0,15.0,58,0.00,,---,0.00,VWS V14.00,2013-03-06 10:22:00,
2013-03-06 05:27:00,39.8,26.2,29.82,NW,309,1.0,15.0,58,0.00,,---,0.00,VWS V14.00,2013-03-06 10:27:00,
2013-03-06 05:32:00,39.8,26.7,29.82,North,360,7.0,12.0,59,0.00,,---,0.00,VWS V14.00,2013-03-06 10:32:00,
2013-03-06 05:37:00,39.8,26.7,29.82,NNE,15,6.0,18.0,59,0.00,,---,0.00,VWS V14.00,2013-03-06 10:37:00,
2013-03-06 05:42:00,39.6,25.2,29.83,NW,305,8.0,31.0,56,0.00,,---,0.00,VWS V14.00,2013-03-06 10:42:00,
2013-03-06 05:47:00,39.1,20.1,29.83,North,351,5.0,31.0,46,0.00,,---,0.00,VWS V14.00,2013-03-06 10:47:00,
2013-03-06 05:52:00,38.6,19.6,29.84,NNE,16,8.0,31.0,46,0.00,,---,0.00,VWS V14.00,2013-03-06 10:52:00,
2013-03-06 05:57:00,38.0,19.6,29.85,WNW,294,15.0,31.0,47,0.00,,---,0.00,VWS V14.00,2013-03-06 10:57:00,
2013-03-06 06:02:00,37.5,20.1,29.85,NNE,22,11.0,18.0,49,0.00,,---,0.00,VWS V14.00,2013-03-06 11:02:00,
2013-03-06 06:07:00,37.1,20.2,29.86,WNW,286,7.0,22.0,50,0.00,,---,0.00,VWS V14.00,2013-03-06 11:07:00,
2013-03-06 06:12:00,36.9,20.5,29.86,NNW,342,6.0,22.0,51,0.00,,---,0.00,VWS V14.00,2013-03-06 11:12:00,
2013-03-06 06:17:00,36.6,20.6,29.86,WNW,302,11.0,22.0,52,0.00,,---,0.00,VWS V14.00,2013-03-06 11:17:00,
2013-03-06 06:22:00,36.4,20.5,29.86,NNW,329,5.0,22.0,52,0.00,,---,0.00,VWS V14.00,2013-03-06 11:22:00,
2013-03-06 06:27:00,36.3,20.8,29.86,NNW,342,5.0,22.0,53,0.00,,---,0.00,VWS V14.00,2013-03-06 11:27:00,
2013-03-06 06:32:00,36.2,20.7,29.87,NNW,327,5.0,14.0,53,0.00,,---,0.00,VWS V14.00,2013-03-06 11:32:00,
2013-03-06 06:37:00,36.1,20.6,29.87,NW,316,5.0,14.0,53,0.00,,---,0.00,VWS V14.00,2013-03-06 11:37:00,
2013-03-06 06:42:00,35.9,20.9,29.87,WNW,293,7.0,15.0,54,0.00,,---,0.00,VWS V14.00,2013-03-06 11:42:00,
2013-03-06 06:47:00,35.8,20.8,29.87,WNW,289,4.0,16.0,54,0.00,,---,0.00,VWS V14.00,2013-03-06 11:47:00,
2013-03-06 06:52:00,35.7,21.1,29.88,NNW,338,5.0,16.0,55,0.00,,---,0.00,VWS V14.00,2013-03-06 11:52:00,
2013-03-06 06:57:00,35.5,21.0,29.88,SW,216,6.0,16.0,55,0.00,,---,0.00,VWS V14.00,2013-03-06 11:57:00,
2013-03-06 07:02:00,35.4,21.3,29.88,NW,322,2.0,12.0,56,0.00,,---,0.00,VWS V14.00,2013-03-06 12:02:00,
2013-03-06 07:07:00,35.4,21.3,29.89,NW,313,1.0,12.0,56,0.00,,---,0.00,VWS V14.00,2013-03-06 12:07:00,
2013-03-06 07:12:00,35.3,21.2,29.89,NE,45,3.0,15.0,56,0.00,,---,0.00,VWS V14.00,2013-03-06 12:12:00,
2013-03-06 07:17:00,35.2,21.5,29.89,NW,318,4.0,15.0,57,0.00,,---,0.00,VWS V14.00,2013-03-06 12:17:00,
2013-03-06 07:22:00,35.2,21.5,29.89,NW,304,4.0,18.0,57,0.00,,---,0.00,VWS V14.00,2013-03-06 12:22:00,
2013-03-06 07:27:00,35.3,21.6,29.90,NNW,348,7.0,18.0,57,0.00,,---,0.00,VWS V14.00,2013-03-06 12:27:00,
2013-03-06 07:32:00,35.5,21.8,29.91,NW,314,1.0,16.0,57,0.00,,---,0.00,VWS V14.00,2013-03-06 12:32:00,
2013-03-06 07:37:00,35.7,21.6,29.91,NW,317,18.0,18.0,56,0.00,,---,0.00,VWS V14.00,2013-03-06 12:37:00,
2013-03-06 07:42:00,35.7,21.6,29.91,SSW,194,4.0,27.0,56,0.00,,---,0.00,VWS V14.00,2013-03-06 12:42:00,
2013-03-06 07:47:00,35.9,21.8,29.92,East,80,2.0,27.0,56,0.00,,---,0.00,VWS V14.00,2013-03-06 12:47:00,
2013-03-06 07:52:00,36.1,21.5,29.92,West,259,5.0,27.0,55,0.00,,---,0.00,VWS V14.00,2013-03-06 12:52:00,
2013-03-06 07:57:00,36.3,21.7,29.92,NW,313,11.0,27.0,55,0.00,,---,0.00,VWS V14.00,2013-03-06 12:57:00,
2013-03-06 08:02:00,36.4,21.8,29.92,NW,321,1.0,17.0,55,0.00,,---,0.00,VWS V14.00,2013-03-06 13:02:00,
2013-03-06 08:07:00,36.5,21.5,29.92,NW,315,7.0,20.0,54,0.00,,---,0.00,VWS V14.00,2013-03-06 13:07:00,
2013-03-06 08:12:00,36.8,22.2,29.92,NW,311,11.0,20.0,55,0.00,,---,0.00,VWS V14.00,2013-03-06 13:12:00,
2013-03-06 08:17:00,36.9,21.8,29.92,WSW,247,10.0,20.0,54,0.00,,---,0.00,VWS V14.00,2013-03-06 13:17:00,
2013-03-06 08:22:00,36.9,21.8,29.92,NW,313,2.0,20.0,54,0.00,,---,0.00,VWS V14.00,2013-03-06 13:22:00,
2013-03-06 08:27:00,37.1,22.0,29.93,NNE,15,7.0,20.0,54,0.00,,---,0.00,VWS V14.00,2013-03-06 13:27:00,
2013-03-06 08:32:00,37.3,22.2,29.92,NW,309,9.0,15.0,54,0.00,,---,0.00,VWS V14.00,2013-03-06 13:32:00,
2013-03-06 08:37:00,37.5,22.4,29.92,NNW,333,2.0,15.0,54,0.00,,---,0.00,VWS V14.00,2013-03-06 13:37:00,
2013-03-06 08:42:00,37.8,22.2,29.92,West,278,4.0,20.0,53,0.00,,---,0.00,VWS V14.00,2013-03-06 13:42:00,
2013-03-06 08:47:00,38.0,22.4,29.92,NW,312,7.0,20.0,53,0.00,,---,0.00,VWS V14.00,2013-03-06 13:47:00,
2013-03-06 08:52:00,38.1,22.5,29.93,North,5,11.0,20.0,53,0.00,,---,0.00,VWS V14.00,2013-03-06 13:52:00,
2013-03-06 08:57:00,38.1,22.5,29.93,NNW,334,6.0,20.0,53,0.00,,---,0.00,VWS V14.00,2013-03-06 13:57:00,
2013-03-06 09:02:00,38.4,22.8,29.93,NNW,347,5.0,14.0,53,0.00,,---,0.00,VWS V14.00,2013-03-06 14:02:00,
2013-03-06 09:07:00,38.7,23.1,29.93,NW,317,5.0,14.0,53,0.00,,---,0.00,VWS V14.00,2013-03-06 14:07:00,
2013-03-06 09:12:00,39.1,23.4,29.95,NW,325,5.0,21.0,53,0.00,,---,0.00,VWS V14.00,2013-03-06 14:12:00,
2013-03-06 09:17:00,39.3,23.2,29.94,West,262,4.0,21.0,52,0.00,,---,0.00,VWS V14.00,2013-03-06 14:17:00,
2013-03-06 09:22:00,39.3,22.7,29.94,WNW,292,12.0,21.0,51,0.00,,---,0.00,VWS V14.00,2013-03-06 14:22:00,
2013-03-06 09:27:00,39.5,22.9,29.94,NW,304,6.0,24.0,51,0.00,,---,0.00,VWS V14.00,2013-03-06 14:27:00,
2013-03-06 09:32:00,39.9,23.3,29.94,NNW,342,0.0,16.0,51,0.00,,---,0.00,VWS V14.00,2013-03-06 14:32:00,
2013-03-06 09:37:00,40.2,23.5,29.94,West,269,7.0,16.0,51,0.00,,---,0.00,VWS V14.00,2013-03-06 14:37:00,
2013-03-06 09:42:00,40.6,23.4,29.94,WNW,301,6.0,17.0,50,0.00,,---,0.00,VWS V14.00,2013-03-06 14:42:00,
2013-03-06 09:47:00,40.8,23.6,29.95,NNW,344,7.0,17.0,50,0.00,,---,0.00,VWS V14.00,2013-03-06 14:47:00,
2013-03-06 09:52:00,41.0,23.8,29.94,North,5,11.0,17.0,50,0.00,,---,0.00,VWS V14.00,2013-03-06 14:52:00,
2013-03-06 09:57:00,41.5,24.3,29.95,North,355,11.0,11.0,50,0.00,,---,0.00,VWS V14.00,2013-03-06 14:57:00,
2013-03-06 10:02:00,41.4,23.7,29.95,NNW,338,1.0,20.0,49,0.00,,---,0.00,VWS V14.00,2013-03-06 15:02:00,
2013-03-06 10:07:00,41.5,24.3,29.95,NW,317,6.0,23.0,50,0.00,,---,0.00,VWS V14.00,2013-03-06 15:07:00,
2013-03-06 10:12:00,41.2,24.0,29.95,West,270,2.0,23.0,50,0.00,,---,0.00,VWS V14.00,2013-03-06 15:12:00,
2013-03-06 10:17:00,41.3,23.6,29.96,NNW,334,7.0,23.0,49,0.00,,---,0.00,VWS V14.00,2013-03-06 15:17:00,
2013-03-06 10:22:00,41.2,24.0,29.95,North,11,11.0,23.0,50,0.00,,---,0.00,VWS V14.00,2013-03-06 15:22:00,
2013-03-06 10:27:00,41.2,24.0,29.95,NNW,336,13.0,23.0,50,0.00,,---,0.00,VWS V14.00,2013-03-06 15:27:00,
2013-03-06 10:32:00,41.4,24.6,29.95,North,355,9.0,20.0,51,0.00,,---,0.00,VWS V14.00,2013-03-06 15:32:00,
2013-03-06 10:37:00,41.3,24.1,29.96,North,5,5.0,25.0,50,0.00,,---,0.00,VWS V14.00,2013-03-06 15:37:00,
2013-03-06 10:42:00,41.0,25.2,29.96,NNW,338,5.0,25.0,53,0.00,,---,0.00,VWS V14.00,2013-03-06 15:42:00,
2013-03-06 10:47:00,40.9,23.7,29.96,NNW,330,2.0,25.0,50,0.00,,---,0.00,VWS V14.00,2013-03-06 15:47:00,
2013-03-06 10:55:00,41.1,24.4,29.96,NNE,15,20.0,20.0,51,0.00,,---,0.00,VWS V14.00,2013-03-06 15:55:00,
2013-03-06 11:00:00,41.5,24.7,29.96,NNW,336,6.0,12.0,51,0.00,,---,0.00,VWS V14.00,2013-03-06 16:00:00,
2013-03-06 11:05:00,41.8,24.1,29.97,WNW,300,13.0,18.0,49,0.00,,---,0.00,VWS V14.00,2013-03-06 16:05:00,
2013-03-06 11:10:00,41.7,24.5,29.97,NNW,332,10.0,20.0,50,0.00,,---,0.00,VWS V14.00,2013-03-06 16:10:00,
2013-03-06 11:15:00,42.0,24.7,29.96,NNW,333,2.0,20.0,50,0.00,,---,0.00,VWS V14.00,2013-03-06 16:15:00,
2013-03-06 11:20:00,42.3,25.0,29.97,ESE,113,16.0,20.0,50,0.00,,---,0.00,VWS V14.00,2013-03-06 16:20:00,
2013-03-06 11:25:00,42.4,24.6,29.96,NW,323,6.0,20.0,49,0.00,,---,0.00,VWS V14.00,2013-03-06 16:25:00,
2013-03-06 11:30:00,42.5,25.2,29.97,North,355,14.0,14.0,50,0.00,,---,0.00,VWS V14.00,2013-03-06 16:30:00,
2013-03-06 11:35:00,42.7,24.4,29.97,West,261,4.0,28.0,48,0.00,,---,0.00,VWS V14.00,2013-03-06 16:35:00,
2013-03-06 11:40:00,42.9,25.6,29.96,NNW,341,7.0,28.0,50,0.00,,---,0.00,VWS V14.00,2013-03-06 16:40:00,
2013-03-06 11:45:00,43.4,25.5,29.96,NNW,338,4.0,28.0,49,0.00,,---,0.00,VWS V14.00,2013-03-06 16:45:00,
2013-03-06 11:50:00,44.2,26.3,29.96,West,274,4.0,28.0,49,0.00,,---,0.00,VWS V14.00,2013-03-06 16:50:00,
2013-03-06 11:55:00,44.9,26.9,29.96,NNW,333,5.0,28.0,49,0.00,,---,0.00,VWS V14.00,2013-03-06 16:55:00,
2013-03-06 12:00:00,45.3,26.3,29.95,NW,325,5.0,13.0,47,0.00,,---,0.00,VWS V14.00,2013-03-06 17:00:00,
2013-03-06 12:05:00,45.6,26.5,29.96,West,272,4.0,15.0,47,0.00,,---,0.00,VWS V14.00,2013-03-06 17:05:00,
2013-03-06 12:10:00,45.6,26.5,29.95,NNE,15,4.0,15.0,47,0.00,,---,0.00,VWS V14.00,2013-03-06 17:10:00,
2013-03-06 12:15:00,45.8,26.7,29.96,WSW,248,5.0,15.0,47,0.00,,---,0.00,VWS V14.00,2013-03-06 17:15:00,
2013-03-06 12:20:00,45.7,26.6,29.96,NNW,341,5.0,15.0,47,0.00,,---,0.00,VWS V14.00,2013-03-06 17:20:00,
2013-03-06 12:25:00,45.6,26.5,29.95,NW,321,10.0,15.0,47,0.00,,---,0.00,VWS V14.00,2013-03-06 17:25:00,
2013-03-06 12:30:00,46.0,26.4,29.95,NNW,339,10.0,19.0,46,0.00,,---,0.00,VWS V14.00,2013-03-06 17:30:00,
2013-03-06 12:35:00,45.1,26.1,29.96,NW,322,5.0,19.0,47,0.00,,---,0.00,VWS V14.00,2013-03-06 17:35:00,
2013-03-06 12:40:00,44.8,25.8,29.95,NW,319,4.0,19.0,47,0.00,,---,0.00,VWS V14.00,2013-03-06 17:40:00,
2013-03-06 12:45:00,44.6,26.6,29.95,North,355,8.0,19.0,49,0.00,,---,0.00,VWS V14.00,2013-03-06 17:45:00,
2013-03-06 12:50:00,45.0,26.5,29.95,NW,318,2.0,19.0,48,0.00,,---,0.00,VWS V14.00,2013-03-06 17:50:00,
2013-03-06 12:55:00,45.3,26.8,29.95,SW,236,5.0,19.0,48,0.00,,---,0.00,VWS V14.00,2013-03-06 17:55:00,
2013-03-06 13:00:00,46.0,26.9,29.95,North,5,5.0,14.0,47,0.00,,---,0.00,VWS V14.00,2013-03-06 18:00:00,
2013-03-06 13:05:00,46.6,26.9,29.94,NNE,18,0.0,16.0,46,0.00,,---,0.00,VWS V14.00,2013-03-06 18:05:00,
2013-03-06 13:10:00,47.3,28.1,29.94,NNW,330,2.0,20.0,47,0.00,,---,0.00,VWS V14.00,2013-03-06 18:10:00,
2013-03-06 13:15:00,47.6,27.9,29.94,NNW,341,4.0,20.0,46,0.00,,---,0.00,VWS V14.00,2013-03-06 18:15:00,
2013-03-06 13:20:00,47.0,26.8,29.94,North,355,5.0,20.0,45,0.00,,---,0.00,VWS V14.00,2013-03-06 18:20:00,
2013-03-06 13:25:00,46.7,27.0,29.95,NW,325,6.0,20.0,46,0.00,,---,0.00,VWS V14.00,2013-03-06 18:25:00,
2013-03-06 13:30:00,46.7,27.6,29.94,WNW,291,4.0,13.0,47,0.00,,---,0.00,VWS V14.00,2013-03-06 18:30:00,
2013-03-06 13:35:00,46.9,27.7,29.94,West,276,2.0,18.0,47,0.00,,---,0.00,VWS V14.00,2013-03-06 18:35:00,
2013-03-06 13:40:00,46.8,27.1,29.94,NNW,343,4.0,18.0,46,0.00,,---,0.00,VWS V14.00,2013-03-06 18:40:00,
2013-03-06 13:45:00,46.1,27.0,29.94,North,355,6.0,18.0,47,0.00,,---,0.00,VWS V14.00,2013-03-06 18:45:00,
2013-03-06 13:50:00,45.8,27.2,29.93,SW,236,5.0,18.0,48,0.00,,---,0.00,VWS V14.00,2013-03-06 18:50:00,
2013-03-06 13:55:00,46.0,27.4,29.94,WSW,248,5.0,18.0,48,0.00,,---,0.00,VWS V14.00,2013-03-06 18:55:00,
2013-03-06 14:00:00,46.7,27.6,29.94,North,360,3.0,15.0,47,0.00,,---,0.00,VWS V14.00,2013-03-06 19:00:00,
2013-03-06 14:05:00,46.7,27.6,29.94,NW,319,1.0,23.0,47,0.00,,---,0.00,VWS V14.00,2013-03-06 19:05:00,
2013-03-06 14:10:00,47.0,28.3,29.94,NW,320,1.0,23.0,48,0.00,,---,0.00,VWS V14.00,2013-03-06 19:10:00,
2013-03-06 14:15:00,47.2,27.0,29.93,NW,308,2.0,23.0,45,0.00,,---,0.00,VWS V14.00,2013-03-06 19:15:00,
2013-03-06 14:20:00,47.7,28.0,29.94,NE,35,11.0,23.0,46,0.00,,---,0.00,VWS V14.00,2013-03-06 19:20:00,
2013-03-06 14:25:00,48.1,27.8,29.93,North,355,5.0,23.0,45,0.00,,---,0.00,VWS V14.00,2013-03-06 19:25:00,
2013-03-06 14:33:00,48.5,28.7,29.94,West,265,3.0,3.0,46,0.00,,---,0.00,VWS V14.00,2013-03-06 19:33:00,
2013-03-06 14:38:00,48.4,27.5,29.94,NW,321,6.0,12.0,44,0.00,,---,0.00,VWS V14.00,2013-03-06 19:38:00,
2013-03-06 14:43:00,48.4,27.5,29.94,NNW,331,4.0,20.0,44,0.00,,---,0.00,VWS V14.00,2013-03-06 19:43:00,
2013-03-06 14:48:00,47.8,27.5,29.93,West,274,9.0,20.0,45,0.00,,---,0.00,VWS V14.00,2013-03-06 19:48:00,
2013-03-06 14:53:00,47.6,27.3,29.94,NW,326,7.0,20.0,45,0.00,,---,0.00,VWS V14.00,2013-03-06 19:53:00,
2013-03-06 14:58:00,48.1,27.2,29.94,NNE,14,3.0,16.0,44,0.00,,---,0.00,VWS V14.00,2013-03-06 19:58:00,
2013-03-06 15:03:00,48.5,28.1,29.94,North,349,6.0,16.0,45,0.00,,---,0.00,VWS V14.00,2013-03-06 20:03:00,
2013-03-06 15:10:00,49.0,28.0,29.94,NW,311,7.0,7.0,44,0.00,,---,0.00,VWS V14.00,2013-03-06 20:10:00,
2013-03-06 15:15:00,49.3,28.3,29.95,North,350,4.0,13.0,44,0.00,,---,0.00,VWS V14.00,2013-03-06 20:15:00,
2013-03-06 15:20:00,49.2,27.7,29.95,NW,321,14.0,14.0,43,0.00,,---,0.00,VWS V14.00,2013-03-06 20:20:00,
2013-03-06 15:25:00,49.0,28.0,29.95,SE,144,5.0,17.0,44,0.00,,---,0.00,VWS V14.00,2013-03-06 20:25:00,
2013-03-06 15:30:00,49.1,28.1,29.95,SW,223,9.0,14.0,44,0.00,,---,0.00,VWS V14.00,2013-03-06 20:30:00,
2013-03-06 15:35:00,49.1,28.1,29.95,WNW,284,14.0,14.0,44,0.00,,---,0.00,VWS V14.00,2013-03-06 20:35:00,
2013-03-06 15:40:00,49.2,28.2,29.95,North,355,8.0,14.0,44,0.00,,---,0.00,VWS V14.00,2013-03-06 20:40:00,
2013-03-06 15:45:00,49.0,28.0,29.95,NW,317,4.0,14.0,44,0.00,,---,0.00,VWS V14.00,2013-03-06 20:45:00,
2013-03-06 15:50:00,48.8,28.4,29.96,NNE,15,9.0,18.0,45,0.00,,---,0.00,VWS V14.00,2013-03-06 20:50:00,
2013-03-06 15:55:00,48.7,28.3,29.96,North,355,7.0,18.0,45,0.00,,---,0.00,VWS V14.00,2013-03-06 20:55:00,
2013-03-06 16:00:00,48.9,28.5,29.97,NW,312,11.0,19.0,45,0.00,,---,0.00,VWS V14.00,2013-03-06 21:00:00,
2013-03-06 16:05:00,48.7,28.3,29.97,NNW,331,8.0,20.0,45,0.00,,---,0.00,VWS V14.00,2013-03-06 21:05:00,
2013-03-06 16:10:00,48.7,28.3,29.97,North,360,4.0,20.0,45,0.00,,---,0.00,VWS V14.00,2013-03-06 21:10:00,
2013-03-06 16:15:00,48.8,28.4,29.97,North,11,8.0,20.0,45,0.00,,---,0.00,VWS V14.00,2013-03-06 21:15:00,
2013-03-06 16:20:00,48.3,28.0,29.97,NNW,331,7.0,20.0,45,0.00,,---,0.00,VWS V14.00,2013-03-06 21:20:00,
2013-03-06 16:25:00,48.4,28.0,29.98,NNW,334,5.0,20.0,45,0.00,,---,0.00,VWS V14.00,2013-03-06 21:25:00,
2013-03-06 16:30:00,48.3,28.0,29.98,NNW,331,5.0,13.0,45,0.00,,---,0.00,VWS V14.00,2013-03-06 21:30:00,
2013-03-06 16:35:00,48.0,28.2,29.98,NE,42,13.0,15.0,46,0.00,,---,0.00,VWS V14.00,2013-03-06 21:35:00,
2013-03-06 16:40:00,47.7,28.5,29.98,WNW,296,5.0,17.0,47,0.00,,---,0.00,VWS V14.00,2013-03-06 21:40:00,
2013-03-06 16:45:00,47.7,28.5,29.98,NW,312,7.0,17.0,47,0.00,,---,0.00,VWS V14.00,2013-03-06 21:45:00,
2013-03-06 16:50:00,47.6,28.4,29.98,NNE,20,5.0,17.0,47,0.00,,---,0.00,VWS V14.00,2013-03-06 21:50:00,
2013-03-06 16:55:00,47.5,28.3,29.98,WSW,237,6.0,17.0,47,0.00,,---,0.00,VWS V14.00,2013-03-06 21:55:00,
2013-03-06 17:00:00,47.2,28.0,30.00,West,277,15.0,15.0,47,0.00,,---,0.00,VWS V14.00,2013-03-06 22:00:00,
2013-03-06 17:05:00,46.9,28.2,30.00,North,350,11.0,15.0,48,0.00,,---,0.00,VWS V14.00,2013-03-06 22:05:00,
2013-03-06 17:10:00,46.4,27.8,29.99,North,360,1.0,19.0,48,0.00,,---,0.00,VWS V14.00,2013-03-06 22:10:00,
2013-03-06 17:15:00,46.3,28.2,30.00,NW,310,6.0,19.0,49,0.00,,---,0.00,VWS V14.00,2013-03-06 22:15:00,
2013-03-06 17:20:00,46.1,28.0,30.00,North,355,6.0,19.0,49,0.00,,---,0.00,VWS V14.00,2013-03-06 22:20:00,
2013-03-06 17:25:00,46.0,27.9,30.00,NNW,344,1.0,19.0,49,0.00,,---,0.00,VWS V14.00,2013-03-06 22:25:00,
2013-03-06 17:30:00,45.9,28.3,30.00,North,360,5.0,7.0,50,0.00,,---,0.00,VWS V14.00,2013-03-06 22:30:00,
2013-03-06 17:35:00,45.9,28.3,30.00,North,350,4.0,9.0,50,0.00,,---,0.00,VWS V14.00,2013-03-06 22:35:00,
2013-03-06 17:40:00,45.8,28.7,30.01,NNW,328,4.0,9.0,51,0.00,,---,0.00,VWS V14.00,2013-03-06 22:40:00,
2013-03-06 17:45:00,45.8,28.7,30.01,NNE,15,4.0,15.0,51,0.00,,---,0.00,VWS V14.00,2013-03-06 22:45:00,
2013-03-06 17:50:00,45.5,28.0,30.01,North,5,4.0,15.0,50,0.00,,---,0.00,VWS V14.00,2013-03-06 22:50:00,
2013-03-06 17:55:00,45.3,28.2,30.01,NNW,345,4.0,15.0,51,0.00,,---,0.00,VWS V14.00,2013-03-06 22:55:00,
2013-03-06 18:00:00,45.2,28.6,30.02,NNW,338,12.0,12.0,52,0.00,,---,0.00,VWS V14.00,2013-03-06 23:00:00,
2013-03-06 18:05:00,45.0,28.0,30.02,NNW,341,0.0,12.0,51,0.00,,---,0.00,VWS V14.00,2013-03-06 23:05:00,
2013-03-06 18:10:00,44.8,28.3,30.02,NNW,336,2.0,12.0,52,0.00,,---,0.00,VWS V14.00,2013-03-06 23:10:00,
2013-03-06 18:15:00,44.6,28.1,30.02,NNW,338,1.0,13.0,52,0.00,,---,0.00,VWS V14.00,2013-03-06 23:15:00,
2013-03-06 18:20:00,44.4,28.4,30.03,NW,315,0.0,13.0,53,0.00,,---,0.00,VWS V14.00,2013-03-06 23:20:00,
2013-03-06 18:25:00,44.2,28.2,30.03,North,5,3.0,13.0,53,0.00,,---,0.00,VWS V14.00,2013-03-06 23:25:00,
2013-03-06 18:30:00,43.9,27.9,30.04,North,5,2.0,8.0,53,0.00,,---,0.00,VWS V14.00,2013-03-06 23:30:00,
2013-03-06 18:35:00,43.7,27.7,30.04,NNE,17,3.0,9.0,53,0.00,,---,0.00,VWS V14.00,2013-03-06 23:35:00,
2013-03-06 18:40:00,43.5,28.0,30.05,NW,324,1.0,9.0,54,0.00,,---,0.00,VWS V14.00,2013-03-06 23:40:00,
2013-03-06 18:45:00,43.2,28.1,30.05,North,9,2.0,9.0,55,0.00,,---,0.00,VWS V14.00,2013-03-06 23:45:00,
2013-03-06 18:50:00,43.0,28.0,30.05,NNW,335,0.0,9.0,55,0.00,,---,0.00,VWS V14.00,2013-03-06 23:50:00,
2013-03-06 18:55:00,42.8,28.2,30.05,NNE,12,3.0,9.0,56,0.00,,---,0.00,VWS V14.00,2013-03-06 23:55:00,
2013-03-06 19:00:00,42.5,27.9,30.06,North,5,0.0,8.0,56,0.00,,---,0.00,VWS V14.00,2013-03-07 00:00:00,
2013-03-06 19:05:00,42.4,27.8,30.06,NW,319,4.0,8.0,56,0.00,,---,0.00,VWS V14.00,2013-03-07 00:05:00,
2013-03-06 19:10:00,42.2,28.1,30.06,North,360,2.0,8.0,57,0.00,,---,0.00,VWS V14.00,2013-03-07 00:10:00,
2013-03-06 19:15:00,42.0,27.9,30.06,NW,325,2.0,8.0,57,0.00,,---,0.00,VWS V14.00,2013-03-07 00:15:00,
2013-03-06 19:20:00,41.8,28.1,30.07,NNW,328,1.0,8.0,58,0.00,,---,0.00,VWS V14.00,2013-03-07 00:20:00,
2013-03-06 19:25:00,41.6,28.4,30.07,NW,311,0.0,8.0,59,0.00,,---,0.00,VWS V14.00,2013-03-07 00:25:00,
2013-03-06 19:30:00,41.4,28.2,30.07,NW,304,6.0,6.0,59,0.00,,---,0.00,VWS V14.00,2013-03-07 00:30:00,
2013-03-06 19:35:00,41.3,28.5,30.07,NW,325,1.0,7.0,60,0.00,,---,0.00,VWS V14.00,2013-03-07 00:35:00,
2013-03-06 19:40:00,41.1,28.3,30.07,North,355,4.0,7.0,60,0.00,,---,0.00,VWS V14.00,2013-03-07 00:40:00,
2013-03-06 19:45:00,41.0,28.2,30.07,North,11,2.0,7.0,60,0.00,,---,0.00,VWS V14.00,2013-03-07 00:45:00,
2013-03-06 19:50:00,40.8,28.4,30.07,NW,323,4.0,7.0,61,0.00,,---,0.00,VWS V14.00,2013-03-07 00:50:00,
2013-03-06 19:55:00,40.6,28.2,30.08,North,350,2.0,7.0,61,0.00,,---,0.00,VWS V14.00,2013-03-07 00:55:00,
2013-03-06 20:00:00,40.5,28.5,30.08,NNW,334,0.0,11.0,62,0.00,,---,0.00,VWS V14.00,2013-03-07 01:00:00,
2013-03-06 20:05:00,40.4,28.4,30.08,NW,309,2.0,11.0,62,0.00,,---,0.00,VWS V14.00,2013-03-07 01:05:00,
2013-03-06 20:10:00,40.2,28.2,30.08,NW,321,0.0,11.0,62,0.00,,---,0.00,VWS V14.00,2013-03-07 01:10:00,
2013-03-06 20:15:00,40.1,28.1,30.09,NW,323,1.0,11.0,62,0.00,,---,0.00,VWS V14.00,2013-03-07 01:15:00,
2013-03-06 20:20:00,39.9,28.3,30.09,WNW,303,1.0,11.0,63,0.00,,---,0.00,VWS V14.00,2013-03-07 01:20:00,
2013-03-06 20:25:00,39.7,28.1,30.08,NW,317,4.0,11.0,63,0.00,,---,0.00,VWS V14.00,2013-03-07 01:25:00,
2013-03-06 20:30:00,39.6,28.4,30.09,NW,315,2.0,6.0,64,0.00,,---,0.00,VWS V14.00,2013-03-07 01:30:00,
2013-03-06 20:35:00,39.4,28.2,30.09,North,355,6.0,8.0,64,0.00,,---,0.00,VWS V14.00,2013-03-07 01:35:00,
2013-03-06 20:40:00,39.3,28.5,30.09,NW,309,2.0,8.0,65,0.00,,---,0.00,VWS V14.00,2013-03-07 01:40:00,
2013-03-06 20:45:00,39.1,28.3,30.09,NNE,16,1.0,8.0,65,0.00,,---,0.00,VWS V14.00,2013-03-07 01:45:00,
2013-03-06 20:50:00,38.9,28.1,30.08,North,360,1.0,8.0,65,0.00,,---,0.00,VWS V14.00,2013-03-07 01:50:00,
2013-03-06 20:55:00,38.9,28.1,30.08,North,350,1.0,10.0,65,0.00,,---,0.00,VWS V14.00,2013-03-07 01:55:00,
2013-03-06 21:00:00,38.7,28.3,30.08,NW,317,8.0,8.0,66,0.00,,---,0.00,VWS V14.00,2013-03-07 02:00:00,
2013-03-06 21:08:00,38.4,28.0,30.09,NNW,347,0.0,0.0,66,0.00,,---,0.00,VWS V14.00,2013-03-07 02:08:00,
2013-03-06 21:13:00,38.2,28.2,30.09,NW,309,1.0,6.0,67,0.00,,---,0.00,VWS V14.00,2013-03-07 02:13:00,
2013-03-06 21:18:00,38.2,28.2,30.09,North,355,0.0,6.0,67,0.00,,---,0.00,VWS V14.00,2013-03-07 02:18:00,
2013-03-06 21:23:00,38.0,28.0,30.09,North,355,2.0,6.0,67,0.00,,---,0.00,VWS V14.00,2013-03-07 02:23:00,
2013-03-06 21:28:00,38.0,28.4,30.09,NW,324,0.0,2.0,68,0.00,,---,0.00,VWS V14.00,2013-03-07 02:28:00,
2013-03-06 21:33:00,37.9,28.3,30.09,NW,319,0.0,6.0,68,0.00,,---,0.00,VWS V14.00,2013-03-07 02:33:00,
2013-03-06 21:38:00,37.8,28.2,30.09,NNW,336,0.0,6.0,68,0.00,,---,0.00,VWS V14.00,2013-03-07 02:38:00,
2013-03-06 21:43:00,37.7,28.1,30.09,North,355,0.0,6.0,68,0.00,,---,0.00,VWS V14.00,2013-03-07 02:43:00,
2013-03-06 21:48:00,37.6,28.0,30.10,NNW,346,0.0,6.0,68,0.00,,---,0.00,VWS V14.00,2013-03-07 02:48:00,
2013-03-06 21:53:00,37.5,28.3,30.10,NNW,346,0.0,6.0,69,0.00,,---,0.00,VWS V14.00,2013-03-07 02:53:00,
2013-03-06 21:58:00,37.4,28.2,30.10,North,349,0.0,0.0,69,0.00,,---,0.00,VWS V14.00,2013-03-07 02:58:00,
2013-03-06 22:03:00,37.2,28.3,30.10,North,349,0.0,2.0,70,0.00,,---,0.00,VWS V14.00,2013-03-07 03:03:00,
2013-03-06 22:08:00,37.0,28.1,30.11,North,349,0.0,2.0,70,0.00,,---,0.00,VWS V14.00,2013-03-07 03:08:00,
2013-03-06 22:13:00,36.9,28.0,30.11,NW,323,2.0,7.0,70,0.00,,---,0.00,VWS V14.00,2013-03-07 03:13:00,
2013-03-06 22:18:00,36.8,28.3,30.11,NNW,329,1.0,7.0,71,0.00,,---,0.00,VWS V14.00,2013-03-07 03:18:00,
2013-03-06 22:23:00,36.7,28.2,30.11,WNW,292,4.0,7.0,71,0.00,,---,0.00,VWS V14.00,2013-03-07 03:23:00,
2013-03-06 22:28:00,36.6,28.1,30.11,WNW,296,1.0,4.0,71,0.00,,---,0.00,VWS V14.00,2013-03-07 03:28:00,
2013-03-06 22:33:00,36.5,28.4,30.11,North,355,4.0,7.0,72,0.00,,---,0.00,VWS V14.00,2013-03-07 03:33:00,
2013-03-06 22:38:00,36.5,28.4,30.12,North,355,0.0,7.0,72,0.00,,---,0.00,VWS V14.00,2013-03-07 03:38:00,
2013-03-06 22:43:00,36.4,28.2,30.11,North,350,1.0,7.0,72,0.00,,---,0.00,VWS V14.00,2013-03-07 03:43:00,
2013-03-06 22:48:00,36.2,28.1,30.12,NNW,332,2.0,7.0,72,0.00,,---,0.00,VWS V14.00,2013-03-07 03:48:00,
2013-03-06 22:53:00,36.2,28.1,30.12,NNW,332,0.0,7.0,72,0.00,,---,0.00,VWS V14.00,2013-03-07 03:53:00,
2013-03-06 22:58:00,36.1,28.3,30.11,NNW,339,0.0,5.0,73,0.00,,---,0.00,VWS V14.00,2013-03-07 03:58:00,
2013-03-06 23:03:00,36.0,28.2,30.11,NNW,344,0.0,5.0,73,0.00,,---,0.00,VWS V14.00,2013-03-07 04:03:00,
2013-03-06 23:08:00,35.9,28.1,30.12,NNW,343,0.0,5.0,73,0.00,,---,0.00,VWS V14.00,2013-03-07 04:08:00,
2013-03-06 23:13:00,35.8,28.0,30.12,NNW,343,0.0,5.0,73,0.00,,---,0.00,VWS V14.00,2013-03-07 04:13:00,
2013-03-06 23:18:00,35.6,27.8,30.12,NNW,343,0.0,5.0,73,0.00,,---,0.00,VWS V14.00,2013-03-07 04:18:00,
2013-03-06 23:23:00,35.4,28.0,30.12,NNW,343,0.0,5.0,74,0.00,,---,0.00,VWS V14.00,2013-03-07 04:23:00,
2013-03-06 23:28:00,35.3,27.9,30.12,NNW,343,0.0,1.0,74,0.00,,---,0.00,VWS V14.00,2013-03-07 04:28:00,
2013-03-06 23:33:00,35.2,28.1,30.13,NNW,343,1.0,2.0,75,0.00,,---,0.00,VWS V14.00,2013-03-07 04:33:00,
2013-03-06 23:38:00,35.1,28.0,30.13,NNW,343,0.0,2.0,75,0.00,,---,0.00,VWS V14.00,2013-03-07 04:38:00,
2013-03-06 23:43:00,35.0,27.9,30.13,NNW,343,0.0,2.0,75,0.00,,---,0.00,VWS V14.00,2013-03-07 04:43:00,
2013-03-06 23:48:00,34.9,27.8,30.13,NNW,343,0.0,2.0,75,0.00,,---,0.00,VWS V14.00,2013-03-07 04:48:00,
2013-03-06 23:53:00,34.8,27.7,30.13,NNW,343,0.0,2.0,75,0.00,,---,0.00,VWS V14.00,2013-03-07 04:53:00,
2013-03-06 23:58:00,34.8,28.0,30.13,NNW,343,0.0,1.0,76,0.00,,---,0.00,VWS V14.00,2013-03-07 04:58:00,